Time,TemperatureF,DewpointF,PressureIn,WindDirection,WindDirectionDegrees,WindSpeedMPH,WindSpeedGustMPH,Humidity,HourlyPrecipIn,Conditions,Clouds,dailyrainin,SolarRadiationWatts/m^2,SoftwareType,DateUTC
2013-01-24 00:07:00,57.1,30.0,30.20,ESE,117,3.0,4.0,36,0.00,,,0.00,0,weatherlink.com 1.10,2013-01-24 07:07:00,
2013-01-24 00:22:00,58.1,30.0,30.20,ESE,117,2.0,4.0,35,0.00,,,0.00,0,weatherlink.com 1.10,2013-01-24 07:22:00,
2013-01-24 00:37:00,59.4,30.0,30.21,ESE,117,1.0,4.0,33,0.00,,,0.00,0,weatherlink.com 1.10,2013-01-24 07:37:00,
2013-01-24 00:52:00,59.3,31.0,30.21,ESE,117,0.0,3.0,34,0.00,,,0.00,0,weatherlink.com 1.10,2013-01-24 07:52:00,
2013-01-24 01:07:00,57.2,31.0,30.22,ESE,117,0.0,1.0,37,0.00,,,0.00,0,weatherlink.com 1.10,2013-01-24 08:07:00,
2013-01-24 01:22:00,55.1,31.0,30.22,ESE,117,0.0,1.0,40,0.00,,,0.00,0,weatherlink.com 1.10,2013-01-24 08:22:00,
2013-01-24 01:37:00,54.5,31.0,30.22,ESE,117,0.0,2.0,41,0.00,,,0.00,0,weatherlink.com 1.10,2013-01-24 08:37:00,
2013-01-24 01:52:00,55.2,30.0,30.22,ESE,117,0.0,2.0,39,0.00,,,0.00,0,weatherlink.com 1.10,2013-01-24 08:52:00,
2013-01-24 02:07:00,55.6,31.0,30.21,ESE,117,1.0,1.0,39,0.00,,,0.00,0,weatherlink.com 1.10,2013-01-24 09:07:00,
2013-01-24 02:22:00,55.9,31.0,30.21,ESE,117,0.0,1.0,39,0.00,,,0.00,0,weatherlink.com 1.10,2013-01-24 09:22:00,
2013-01-24 02:38:00,55.6,31.0,30.20,ESE,117,0.0,0.0,39,0.00,,,0.00,0,weatherlink.com 1.10,2013-01-24 09:38:00,
2013-01-24 02:52:00,55.1,31.0,30.20,ESE,117,0.0,0.0,40,0.00,,,0.00,0,weatherlink.com 1.10,2013-01-24 09:52:00,
2013-01-24 03:07:00,55.6,31.0,30.20,ESE,117,0.0,1.0,39,0.00,,,0.00,0,weatherlink.com 1.10,2013-01-24 10:07:00,
2013-01-24 03:22:00,55.1,32.0,30.21,ESE,117,0.0,3.0,42,0.00,,,0.00,0,weatherlink.com 1.10,2013-01-24 10:22:00,
2013-01-24 03:37:00,54.6,32.0,30.20,ESE,117,1.0,2.0,42,0.00,,,0.00,0,weatherlink.com 1.10,2013-01-24 10:37:00,
2013-01-24 03:52:00,54.5,32.0,30.20,ESE,117,0.0,1.0,43,0.00,,,0.00,0,weatherlink.com 1.10,2013-01-24 10:52:00,
2013-01-24 04:07:00,54.5,32.0,30.20,ESE,117,0.0,0.0,43,0.00,,,0.00,0,weatherlink.com 1.10,2013-01-24 11:07:00,
2013-01-24 04:23:00,54.8,31.0,30.20,ESE,117,0.0,0.0,41,0.00,,,0.00,0,weatherlink.com 1.10,2013-01-24 11:23:00,
2013-01-24 04:37:00,55.0,33.0,30.20,ESE,117,0.0,1.0,43,0.00,,,0.00,0,weatherlink.com 1.10,2013-01-24 11:37:00,
2013-01-24 04:52:00,55.4,32.0,30.20,ESE,117,0.0,1.0,42,0.00,,,0.00,0,weatherlink.com 1.10,2013-01-24 11:52:00,
2013-01-24 05:08:00,56.0,32.0,30.20,ESE,117,0.0,2.0,40,0.00,,,0.00,0,weatherlink.com 1.10,2013-01-24 12:08:00,
2013-01-24 05:22:00,55.4,34.0,30.19,ESE,117,0.0,1.0,44,0.00,,,0.00,0,weatherlink.com 1.10,2013-01-24 12:22:00,
2013-01-24 05:38:00,53.6,34.0,30.20,ESE,117,0.0,1.0,47,0.00,,,0.00,0,weatherlink.com 1.10,2013-01-24 12:38:00,
2013-01-24 05:52:00,53.2,33.0,30.19,ESE,117,0.0,1.0,46,0.00,,,0.00,0,weatherlink.com 1.10,2013-01-24 12:52:00,
2013-01-24 06:07:00,53.2,33.0,30.18,ESE,117,0.0,2.0,46,0.00,,,0.00,0,weatherlink.com 1.10,2013-01-24 13:07:00,
2013-01-24 06:22:00,53.6,33.0,30.19,ESE,117,1.0,1.0,46,0.00,,,0.00,0,weatherlink.com 1.10,2013-01-24 13:22:00,
2013-01-24 06:37:00,53.6,33.0,30.19,ESE,117,0.0,0.0,46,0.00,,,0.00,0,weatherlink.com 1.10,2013-01-24 13:37:00,
2013-01-24 06:52:00,53.6,33.0,30.20,ESE,117,1.0,2.0,46,0.00,,,0.00,0,weatherlink.com 1.10,2013-01-24 13:52:00,
2013-01-24 07:07:00,54.3,34.0,30.21,ESE,117,1.0,2.0,46,0.00,,,0.00,0,weatherlink.com 1.10,2013-01-24 14:07:00,
2013-01-24 07:22:00,55.2,33.0,30.21,ESE,117,0.0,1.0,44,0.00,,,0.00,0,weatherlink.com 1.10,2013-01-24 14:22:00,
2013-01-24 07:37:00,55.4,34.0,30.22,ESE,117,0.0,0.0,44,0.00,,,0.00,12,weatherlink.com 1.10,2013-01-24 14:37:00,
2013-01-24 07:53:00,55.1,34.0,30.22,ESE,117,0.0,1.0,46,0.00,,,0.00,14,weatherlink.com 1.10,2013-01-24 14:53:00,
2013-01-24 08:08:00,55.3,34.0,30.21,ESE,117,0.0,2.0,45,0.00,,,0.00,30,weatherlink.com 1.10,2013-01-24 15:08:00,
2013-01-24 08:23:00,55.8,34.0,30.22,ESE,117,0.0,1.0,44,0.00,,,0.00,49,weatherlink.com 1.10,2013-01-24 15:23:00,
2013-01-24 08:38:00,56.6,35.0,30.22,ESE,117,0.0,1.0,45,0.00,,,0.00,46,weatherlink.com 1.10,2013-01-24 15:38:00,
2013-01-24 08:53:00,57.2,36.0,30.23,ESE,117,0.0,0.0,45,0.00,,,0.00,95,weatherlink.com 1.10,2013-01-24 15:53:00,
2013-01-24 09:08:00,58.6,35.0,30.23,ESE,117,0.0,1.0,41,0.00,,,0.00,128,weatherlink.com 1.10,2013-01-24 16:08:00,
2013-01-24 09:23:00,60.1,37.0,30.23,ESE,117,0.0,1.0,42,0.00,,,0.00,111,weatherlink.com 1.10,2013-01-24 16:23:00,
2013-01-24 09:38:00,61.0,36.0,30.23,ESE,117,0.0,1.0,39,0.00,,,0.00,130,weatherlink.com 1.10,2013-01-24 16:38:00,
2013-01-24 09:53:00,62.2,36.0,30.23,ESE,117,0.0,1.0,38,0.00,,,0.00,132,weatherlink.com 1.10,2013-01-24 16:53:00,
2013-01-24 10:08:00,63.0,37.0,30.25,ESE,117,1.0,1.0,38,0.00,,,0.00,113,weatherlink.com 1.10,2013-01-24 17:08:00,
2013-01-24 10:23:00,63.2,37.0,30.25,ESE,117,0.0,1.0,38,0.00,,,0.00,139,weatherlink.com 1.10,2013-01-24 17:23:00,
2013-01-24 10:38:00,63.5,41.0,30.24,ESE,117,1.0,2.0,44,0.00,,,0.00,105,weatherlink.com 1.10,2013-01-24 17:38:00,
2013-01-24 10:53:00,63.6,41.0,30.24,ESE,117,0.0,1.0,44,0.00,,,0.00,72,weatherlink.com 1.10,2013-01-24 17:53:00,
2013-01-24 11:08:00,63.4,43.0,30.25,ESE,119,2.0,5.0,47,0.00,,,0.00,88,weatherlink.com 1.10,2013-01-24 18:08:00,
2013-01-24 11:23:00,62.5,43.0,30.25,ESE,121,0.0,4.0,50,0.00,,,0.00,125,weatherlink.com 1.10,2013-01-24 18:23:00,
2013-01-24 11:38:00,62.2,46.0,30.25,ESE,121,0.0,1.0,56,0.00,,,0.00,171,weatherlink.com 1.10,2013-01-24 18:38:00,
2013-01-24 11:54:00,62.0,47.0,30.25,ESE,121,0.0,2.0,58,0.00,,,0.00,160,weatherlink.com 1.10,2013-01-24 18:54:00,
2013-01-24 12:09:00,61.1,47.0,30.25,ESE,121,0.0,3.0,61,0.00,,,0.00,67,weatherlink.com 1.10,2013-01-24 19:09:00,
2013-01-24 12:24:00,59.2,48.0,30.24,ESE,121,0.0,3.0,67,0.01,,,0.01,84,weatherlink.com 1.10,2013-01-24 19:24:00,
2013-01-24 12:38:00,58.4,50.0,30.23,ESE,121,1.0,2.0,73,0.01,,,0.01,118,weatherlink.com 1.10,2013-01-24 19:38:00,
2013-01-24 12:53:00,57.4,50.0,30.22,ESE,121,1.0,4.0,75,0.02,,,0.02,121,weatherlink.com 1.10,2013-01-24 19:53:00,
2013-01-24 13:09:00,57.9,49.0,30.21,ESE,121,0.0,2.0,72,0.02,,,0.02,83,weatherlink.com 1.10,2013-01-24 20:09:00,
2013-01-24 13:23:00,58.8,50.0,30.20,ESE,121,0.0,2.0,73,0.01,,,0.02,113,weatherlink.com 1.10,2013-01-24 20:23:00,
2013-01-24 13:38:00,60.1,52.0,30.18,ESE,121,2.0,4.0,74,0.00,,,0.02,158,weatherlink.com 1.10,2013-01-24 20:38:00,
2013-01-24 13:54:00,61.6,50.0,30.17,ESE,105,8.0,8.0,66,0.00,,,0.02,125,weatherlink.com 1.10,2013-01-24 20:54:00,
2013-01-24 14:09:00,62.7,49.0,30.17,East,87,5.0,9.0,61,0.00,,,0.02,70,weatherlink.com 1.10,2013-01-24 21:09:00,
2013-01-24 14:24:00,62.9,48.0,30.16,East,84,6.0,8.0,59,0.00,,,0.02,79,weatherlink.com 1.10,2013-01-24 21:24:00,
2013-01-24 14:39:00,63.2,48.0,30.16,East,89,5.0,7.0,58,0.00,,,0.02,53,weatherlink.com 1.10,2013-01-24 21:39:00,
2013-01-24 14:54:00,63.4,47.0,30.16,East,89,2.0,6.0,56,0.00,,,0.02,63,weatherlink.com 1.10,2013-01-24 21:54:00,
2013-01-24 15:09:00,63.6,47.0,30.17,East,90,3.0,5.0,56,0.00,,,0.02,30,weatherlink.com 1.10,2013-01-24 22:09:00,
2013-01-24 15:24:00,63.5,46.0,30.18,East,90,1.0,5.0,53,0.00,,,0.02,44,weatherlink.com 1.10,2013-01-24 22:24:00,
2013-01-24 15:39:00,63.5,48.0,30.19,East,90,2.0,3.0,58,0.00,,,0.02,23,weatherlink.com 1.10,2013-01-24 22:39:00,
2013-01-24 15:54:00,63.2,51.0,30.19,WNW,287,1.0,5.0,65,0.00,,,0.02,40,weatherlink.com 1.10,2013-01-24 22:54:00,
2013-01-24 16:09:00,62.8,51.0,30.20,West,268,2.0,4.0,66,0.00,,,0.02,40,weatherlink.com 1.10,2013-01-24 23:09:00,
2013-01-24 16:24:00,62.5,51.0,30.20,NNW,333,2.0,4.0,67,0.00,,,0.02,40,weatherlink.com 1.10,2013-01-24 23:24:00,
2013-01-24 16:39:00,61.2,49.0,30.20,NW,315,2.0,5.0,65,0.00,,,0.02,19,weatherlink.com 1.10,2013-01-24 23:39:00,
2013-01-24 16:54:00,61.2,50.0,30.21,NW,315,0.0,3.0,66,0.00,,,0.02,12,weatherlink.com 1.10,2013-01-24 23:54:00,
2013-01-24 17:09:00,61.1,50.0,30.21,NW,315,0.0,1.0,66,0.00,,,0.02,7,weatherlink.com 1.10,2013-01-25 00:09:00,
2013-01-24 17:24:00,61.0,50.0,30.21,NW,315,0.0,1.0,67,0.00,,,0.02,5,weatherlink.com 1.10,2013-01-25 00:24:00,
2013-01-24 17:39:00,60.8,50.0,30.21,NW,315,0.0,1.0,67,0.00,,,0.02,0,weatherlink.com 1.10,2013-01-25 00:39:00,
2013-01-24 17:54:00,60.5,49.0,30.20,NW,315,1.0,4.0,66,0.00,,,0.02,0,weatherlink.com 1.10,2013-01-25 00:54:00,
2013-01-24 18:09:00,60.4,49.0,30.20,NW,317,0.0,3.0,67,0.00,,,0.02,0,weatherlink.com 1.10,2013-01-25 01:09:00,
2013-01-24 18:24:00,59.6,50.0,30.22,NW,317,0.0,1.0,70,0.00,,,0.02,0,weatherlink.com 1.10,2013-01-25 01:24:00,
2013-01-24 18:39:00,59.1,50.0,30.22,NW,317,0.0,3.0,71,0.00,,,0.02,0,weatherlink.com 1.10,2013-01-25 01:39:00,
2013-01-24 18:54:00,58.9,50.0,30.23,NW,317,1.0,2.0,72,0.00,,,0.02,0,weatherlink.com 1.10,2013-01-25 01:54:00,
2013-01-24 19:09:00,58.9,50.0,30.22,NW,317,1.0,2.0,72,0.00,,,0.02,0,weatherlink.com 1.10,2013-01-25 02:09:00,
2013-01-24 19:24:00,58.6,50.0,30.21,NW,317,0.0,1.0,72,0.00,,,0.02,0,weatherlink.com 1.10,2013-01-25 02:24:00,
2013-01-24 19:39:00,58.3,49.0,30.22,NW,326,3.0,5.0,71,0.00,,,0.02,0,weatherlink.com 1.10,2013-01-25 02:39:00,
2013-01-24 19:54:00,59.9,47.0,30.23,East,98,6.0,9.0,62,0.00,,,0.02,0,weatherlink.com 1.10,2013-01-25 02:54:00,
2013-01-24 20:09:00,60.2,45.0,30.23,East,94,6.0,9.0,58,0.00,,,0.02,0,weatherlink.com 1.10,2013-01-25 03:09:00,
2013-01-24 20:24:00,60.0,46.0,30.23,East,93,0.0,2.0,60,0.00,,,0.02,0,weatherlink.com 1.10,2013-01-25 03:24:00,
2013-01-24 20:39:00,59.3,49.0,30.23,East,93,0.0,2.0,69,0.00,,,0.02,0,weatherlink.com 1.10,2013-01-25 03:39:00,
2013-01-24 20:54:00,58.7,49.0,30.23,East,93,0.0,1.0,71,0.00,,,0.02,0,weatherlink.com 1.10,2013-01-25 03:54:00,
2013-01-24 21:09:00,58.3,49.0,30.23,East,93,1.0,2.0,72,0.00,,,0.02,0,weatherlink.com 1.10,2013-01-25 04:09:00,
2013-01-24 21:24:00,58.7,49.0,30.24,East,80,1.0,3.0,69,0.00,,,0.02,0,weatherlink.com 1.10,2013-01-25 04:24:00,
2013-01-24 21:39:00,58.9,48.0,30.24,East,80,0.0,1.0,68,0.00,,,0.02,0,weatherlink.com 1.10,2013-01-25 04:39:00,
2013-01-24 21:54:00,58.5,49.0,30.24,East,80,0.0,1.0,70,0.00,,,0.02,0,weatherlink.com 1.10,2013-01-25 04:54:00,
2013-01-24 22:09:00,57.9,49.0,30.25,East,80,0.0,0.0,71,0.00,,,0.02,0,weatherlink.com 1.10,2013-01-25 05:09:00,
2013-01-24 22:24:00,57.5,49.0,30.24,East,80,0.0,1.0,73,0.00,,,0.02,0,weatherlink.com 1.10,2013-01-25 05:24:00,
2013-01-24 22:39:00,57.4,49.0,30.24,East,80,0.0,4.0,73,0.00,,,0.02,0,weatherlink.com 1.10,2013-01-25 05:39:00,
2013-01-24 22:54:00,57.1,49.0,30.25,East,80,1.0,2.0,75,0.00,,,0.02,0,weatherlink.com 1.10,2013-01-25 05:54:00,
2013-01-24 23:09:00,56.9,47.0,30.24,East,80,2.0,3.0,70,0.00,,,0.02,0,weatherlink.com 1.10,2013-01-25 06:09:00,
2013-01-24 23:24:00,58.4,47.0,30.24,East,80,0.0,4.0,67,0.00,,,0.02,0,weatherlink.com 1.10,2013-01-25 06:24:00,
2013-01-24 23:39:00,58.2,48.0,30.23,East,80,0.0,0.0,69,0.00,,,0.02,0,weatherlink.com 1.10,2013-01-25 06:39:00,
2013-01-24 23:54:00,57.1,48.0,30.22,East,80,0.0,1.0,72,0.00,,,0.02,0,weatherlink.com 1.10,2013-01-25 06:54:00,